Погода в Мирополье

Украина / Сумская область     51°01′25″N   35°15′31″E
темп.,
°C
ветер,
м/с
пор.,
м/с
влажн.,
%
обл.,
%
осадки,
мм/ч
давл.,
гПа
погр.,
м
14 июня, пн
пн1400:00+15ююв2291100 0.3 100912
03:00+14ююв22925 0.3 101018
06:00+15вюв23915 0.0 101175
09:00+20юв34795 0.0 1012438
12:00+23юв336489 2.5 10131012
15:00+24юв236249 2.7 10141336
18:00+24в11644 0.1 10131201
21:00+18всв228524 0.3 101411
15 июня, вт
вт1500:00+17ссв11865 0.0 101411
03:00+16ссв22905 0.1 101411
06:00+17с23925 0.0 101480
09:00+21с34795 0.0 1013429
12:00+24ссв347498 2.0 1012659
15:00+24св2372100 6.5 1011993
18:00+24св24795 0.9 1010608
21:00+19св22876 2.4 101019
16 июня, ср
ср1600:00+17всв2291100 1.1 101015
03:00+17вюв119281 1.4 101011
06:00+18ссв239487 0.8 101095
09:00+21св238270 0.8 1011349
12:00+24св2372100 4.6 1011390
15:00+22ссв3581100 5.9 1012335
18:00+21ссв58835 0.1 1012475
21:00+18ссв479413 0.3 1014152
17 июня, чт
чт1700:00+16св4119521 0.0 1014239
03:00+17св5139572 0.0 1015358
06:00+17св61494100 0.0 1017466
09:00+20всв8128344 0.0 1018683
12:00+23всв797357 0.0 10191170
15:00+23св797681 0.1 10191316
18:00+22всв711805 0.2 1019888
21:00+18св614773 0.2 1021527
18 июня, пт
пт1800:00+16всв615770 0.0 1021465
03:00+14всв515860 0.0 1022413
06:00+14всв614880 0.0 1023425
09:00+18в713750 0.0 1022702
12:00+21в810687 0.0 10231141
15:00+22в796635 0.0 10231399
18:00+21в697620 0.0 10231116
21:00+17в41190100 0.0 1024244